| time (UTC) | temp F | wind direction | speed knots | gust knots | rain 1hr in | rain 24hr in | rain mn in | humidity % | barometer mb |
| 20260502181703 | 47 | 270 | 0.9 | 2.6 | 0.00 | 0.00 | 0.00 | 56 | 1021.7 |
| 20260502161702 | 48 | 120 | 0.9 | 3.5 | 0.00 | 0.00 | 0.00 | 49 | 1022.4 |
| 20260502151702 | 46 | 73 | 1.7 | 3.5 | 0.00 | 0.00 | 0.00 | 44 | 1023.0 |
| 20260502121702 | 36 | 63 | 0.9 | 1.7 | 0.00 | 0.00 | 0.00 | 81 | 1023.9 |
| 20260502114702 | 34 | 37 | 0.0 | 0.9 | 0.00 | 0.00 | 0.00 | 83 | 1023.9 |
| 20260502111702 | 32 | 47 | 0.9 | 2.6 | 0.00 | 0.00 | 0.00 | 84 | 1023.8 |
| 20260502104701 | 32 | 322 | 0.0 | 2.6 | 0.00 | 0.00 | 0.00 | 87 | 1023.6 |
| 20260502101702 | 29 | 0 | 0.0 | 0.0 | 0.00 | 0.00 | 0.00 | 91 | 1023.5 |
| 20260502071303 | 28 | 0 | 0.0 | 0.0 | 0.00 | 0.00 | 0.00 | 90 | 1022.9 |
| 20260502065702 | 28 | 0 | 0.0 | 0.0 | 0.00 | 0.00 | 0.00 | 90 | 1023.0 |
| 20260502064902 | 28 | 0 | 0.0 | 0.0 | 0.00 | 0.00 | 0.00 | 90 | 1022.8 |
| 20260502064102 | 28 | 0 | 0.0 | 0.0 | 0.00 | 0.00 | 0.00 | 90 | 1023.0 |
| 20260502063302 | 28 | 0 | 0.0 | 0.0 | 0.00 | 0.00 | 0.00 | 90 | 1022.7 |
| 20260502062902 | 28 | 0 | 0.0 | 0.0 | 0.00 | 0.00 | 0.00 | 89 | 1022.7 |
| 20260502062103 | 29 | 0 | 0.0 | 0.0 | 0.00 | 0.00 | 0.00 | 89 | 1022.7 |
| 20260502061902 | 29 | 0 | 0.0 | 0.0 | 0.00 | 0.00 | 0.00 | 89 | 1022.7 |
| 20260502061702 | 29 | 0 | 0.0 | 0.0 | 0.00 | 0.00 | 0.00 | 89 | 1022.7 |
| 20260502061303 | 29 | 0 | 0.0 | 0.0 | 0.00 | 0.00 | 0.00 | 89 | 1022.7 |
| 20260502060902 | 29 | 0 | 0.0 | 0.0 | 0.00 | 0.00 | 0.00 | 89 | 1022.7 |
| 20260502060702 | 29 | 0 | 0.0 | 0.0 | 0.00 | 0.00 | 0.00 | 89 | 1022.8 |
| 20260502060503 | 29 | 0 | 0.0 | 0.0 | 0.00 | 0.00 | 0.00 | 89 | 1022.8 |
| 20260502060402 | 29 | 0 | 0.0 | 0.0 | 0.00 | 0.00 | 0.00 | 89 | 1022.8 |
| 20260502060303 | 29 | 0 | 0.0 | 0.0 | 0.00 | 0.00 | 0.00 | 89 | 1022.8 |
| 20260502060202 | 29 | 0 | 0.0 | 0.0 | 0.00 | 0.00 | 0.00 | 89 | 1022.8 |
| 20260502055444 | 29 | 0 | 0.0 | 0.0 | 0.00 | 0.00 | 0.00 | 89 | 1022.8 |
| 20260502045426 | 29 | 0 | 0.0 | 0.0 | 0.00 | 0.00 | 0.00 | 87 | 1022.8 |
| 20260502035425 | 31 | 0 | 0.0 | 0.0 | 0.00 | 0.00 | 0.00 | 85 | 1022.8 |
| 20260502025425 | 33 | 290 | 0.9 | 1.7 | 0.00 | 0.00 | 0.00 | 80 | 1022.5 |
| 20260502015431 | 34 | 283 | 0.0 | 0.9 | 0.00 | 0.01 | 0.00 | 82 | 1022.8 |
| 20260502005426 | 37 | 0 | 0.0 | 0.0 | 0.00 | 0.05 | 0.00 | 76 | 1022.2 |
| 20260502002425 | 40 | 260 | 0.9 | 0.9 | 0.00 | 0.07 | 0.00 | 68 | 1022.0 |
| 20260501235425 | 43 | 14 | 1.7 | 6.1 | 0.00 | 0.11 | 0.00 | 58 | 1021.6 |
| 20260501232425 | 44 | 352 | 1.7 | 6.1 | 0.00 | 0.15 | 0.00 | 54 | 1021.5 |
| 20260501225558 | 45 | 305 | 0.9 | 3.5 | 0.00 | 0.19 | 0.00 | 56 | 1021.4 |
| 20260501215425 | 45 | 286 | 1.7 | 3.5 | 0.00 | 0.24 | 0.00 | 54 | 1021.4 |
| 20260501212425 | 46 | 301 | 1.7 | 5.2 | 0.00 | 0.28 | 0.00 | 53 | 1021.1 |
| 20260501205426 | 46 | 290 | 1.7 | 6.1 | 0.00 | 0.33 | 0.00 | 54 | 1020.8 |
| 20260501195430 | 46 | 279 | 2.6 | 6.1 | 0.00 | 0.40 | 0.00 | 54 | 1020.3 |
| 20260501185425 | 47 | 266 | 2.6 | 6.1 | 0.00 | 0.45 | 0.00 | 57 | 1020.1 |